Tracking 18840 objects as of 19-November-2017
HD Live streaming from Space Station
objects crossing your sky now

GONETS D1 9

Track GONETS D1 9 now!
10-day predictions
GONETS D1 9 is classified as:


NORAD ID: 27060
Int'l Code: 2001-058F
Perigee: 1,411.2 km
Apogee: 1,424.3 km
Inclination: 82.5 °
Period: 114.0 minutes
Semi major axis: 7788 km
RCS: 0.944 m2 (medium)
Launch date: December 28, 2001
Source: Commonwealth of Independent States (former USSR) (CIS)
Launch site: PLESETSK MISSILE AND SPACE COMPLEX (PKMTR)
aabbcc
Your satellite tracking list
Your tracking list is empty




NASA's NSSDC Master Catalog

Two Line Element Set (TLE):
1 27060U 01058F   17323.05809216 -.00000286  00000-0 -16421-2 0  9990
2 27060  82.5450  47.3784 0008423 201.3456 158.7362 12.62993685732760
Source of the keplerian elements: AFSPC